• Join FlightAware (Why Join?)
  • Login
  • US Flag 
10:51AM EDT


 

Airport Tracker/Info


-or-


 

Live Flight TrackerFlight Track Log ✈ VH-VJE ✈ 19-Apr-2013 ✈ YCCA / CCL - YBBN / BNE

Flight Track Log - Related Links

Times and Time Zones

All times are in EDT time to prevent confusion due to time zone crossing. See the VH-VJE flight status page for this flight to view local times or setup timezone preferences in your user account.

Time Position Orientation Groundspeed Altitude Reporting Facility
EDT Latitude Longitude Course Direction KTS MPH feet Rate Location/Type
02:29AM -26.7981 150.6738 96° East 218 251 2,400  Level Aus ATC (RADAR)
02:30AM -26.8053 150.7549 96° East 191 220 3,900 1,020 Climbing Aus ATC (RADAR)
02:31AM -26.8089 150.7746 102° East 194 223 4,200 720 Climbing Aus ATC (RADAR)
02:31AM -26.8240 150.8081 117° Southeast 205 236 4,600 720 Climbing Aus ATC (RADAR)
02:32AM -26.8417 150.8674 109° East 201 231 5,400 780 Climbing Aus ATC (RADAR)
02:33AM -26.8494 150.9040 103° East 205 236 5,900 1,020 Climbing Aus ATC (RADAR)
02:34AM -26.8657 150.9648 107° East 203 234 7,100 1,020 Climbing Aus ATC (RADAR)
02:35AM -26.8933 151.0488 110° East 203 234 8,500 960 Climbing Aus ATC (RADAR)
02:36AM -26.8970 151.0643 105° East 204 235 8,800 600 Climbing Aus ATC (RADAR)
02:36AM -26.9026 151.1036 99° East 214 246 9,000 60 Climbing Aus ATC (RADAR)
02:37AM -26.9126 151.1734 99° East 219 252 8,900  Descending Aus ATC (RADAR)
02:38AM -26.9243 151.2083 111° Southeast 207 238 9,000  Climbing Aus ATC (RADAR)
02:39AM -26.9510 151.2870 111° Southeast 200 230 8,900  Descending Aus ATC (RADAR)
02:40AM -26.9722 151.3505 111° Southeast 197 227 9,000 60 Climbing Aus ATC (RADAR)
02:41AM -26.9799 151.3856 104° East 196 226 9,000  Level Aus ATC (RADAR)
02:41AM -26.9837 151.4007 106° East 198 228 9,000  Level Aus ATC (RADAR)
02:42AM -26.9922 151.4358 105° East 198 228 9,000  Level Aus ATC (RADAR)
02:42AM -27.0071 151.4917 107° East 202 232 9,000 -120 Level Aus ATC (RADAR)
02:43AM -27.0161 151.5273 106° East 201 231 8,900 -60 Descending Aus ATC (RADAR)
02:43AM -27.0220 151.5550 106° East 9,100  Climbing FlightAware
02:44AM -27.0270 151.5770 104° East 9,100 -120 Level FlightAware
02:44AM -27.0320 151.6000 104° East 9,000 -120 Descending FlightAware
02:44AM -27.0360 151.6190 103° East 9,100 -120 Climbing FlightAware
02:45AM -27.0400 151.6430 101° East 9,100 -240 Level FlightAware
02:45AM -27.0440 151.6610 104° East 9,000 -360 Descending FlightAware
02:45AM -27.0488 151.6847 104° East 205 236 8,900  Descending Aus ATC (RADAR)
02:46AM -27.0500 151.6840 104° East 9,100  Climbing FlightAware
02:46AM -27.0580 151.7100 109° East 9,100 -60 Level FlightAware
02:46AM -27.0650 151.7310 111° Southeast 9,100 -120 Level FlightAware
02:47AM -27.0730 151.7550 111° Southeast 9,100 -120 Level FlightAware
02:47AM -27.0770 151.7660 112° Southeast 9,000 -180 Descending FlightAware
02:47AM -27.0865 151.7931 112° Southeast 202 232 9,000  Level Aus ATC (RADAR)
02:47AM -27.0890 151.8000 112° Southeast 9,100  Climbing FlightAware
02:48AM -27.0970 151.8240 112° Southeast 9,100 -240 Level FlightAware
02:48AM -27.0980 151.8273 112° Southeast 201 231 9,000 -180 Descending Aus ATC (RADAR)
02:48AM -27.1020 151.8400 109° East 9,100 -120 Climbing FlightAware
02:49AM -27.1080 151.8680 104° East 9,000 -180 Descending FlightAware
02:49AM -27.1120 151.8870 103° East 9,000 -180 Level FlightAware
02:49AM -27.1186 151.9204 103° East 203 234 8,900 -60 Descending Aus ATC (RADAR)
02:50AM -27.1190 151.9290 103° East 9,100  Climbing FlightAware
02:50AM -27.1240 151.9540 103° East 9,000 -180 Descending FlightAware
02:50AM -27.1310 151.9850 104° East 9,000 -180 Level FlightAware
02:51AM -27.1345 152.0025 104° East 199 229 8,900  Descending Aus ATC (RADAR)
02:51AM -27.1390 152.0150 104° East 9,100 120 Climbing FlightAware
02:51AM -27.1430 152.0300 107° East 9,100 -180 Level FlightAware
02:52AM -27.1477 152.0526 107° East 198 228 9,000 -60 Descending Aus ATC (RADAR)
02:52AM -27.1500 152.0600 107° East 9,100  Climbing FlightAware
02:52AM -27.1560 152.0860 105° East 9,100 -120 Level FlightAware
02:52AM -27.1600 152.1010 107° East 9,100 -120 Level FlightAware
02:53AM -27.1670 152.1290 106° East 9,100 -180 Level FlightAware
02:53AM -27.1713 152.1476 106° East 195 224 9,000 -60 Descending Aus ATC (RADAR)
02:53AM -27.1760 152.1600 106° East 9,100  Climbing FlightAware
02:54AM -27.1790 152.1750 103° East 9,100 -120 Level FlightAware
02:54AM -27.1860 152.2000 107° East 9,100 -120 Level FlightAware
02:54AM -27.1890 152.2100 109° East 9,100 -180 Level FlightAware
02:55AM -27.1959 152.2375 109° East 199 229 9,000 -360 Descending Aus ATC (RADAR)
02:55AM -27.1960 152.2380 109° East 9,100 -420 Climbing FlightAware
02:55AM -27.2030 152.2690 104° East 9,100 -420 Level FlightAware
02:55AM -27.2070 152.2860 105° East 9,100 -480 Level FlightAware
02:56AM -27.2120 152.3120 102° East 9,100 -480 Level FlightAware
02:56AM -27.2170 152.3410 101° East 9,100 -540 Level FlightAware
02:57AM -27.2230 152.3720 102° East 9,100 -600 Level FlightAware
02:57AM -27.2280 152.3990 102° East 9,000 -720 Descending FlightAware
02:58AM -27.2330 152.4270 101° East 8,500 -780 Descending FlightAware
02:58AM -27.2380 152.4500 104° East 8,300 -720 Descending FlightAware
02:58AM -27.2440 152.4790 103° East 8,100 -720 Descending FlightAware
02:59AM -27.2510 152.5140 103° East 7,700 -720 Descending FlightAware
02:59AM -27.2580 152.5500 102° East 7,300 -720 Descending FlightAware
03:00AM -27.2620 152.5740 101° East 219 252 7,100 -720 Descending FlightAware
03:00AM -27.2680 152.6080 101° East 220 253 6,700 -960 Descending FlightAware
03:01AM -27.2710 152.6270 100° East 218 251 6,400 -1,380 Descending FlightAware
03:01AM -27.2765 152.6571 100° East 222 255 5,900 -960 Descending Aus ATC (RADAR)
03:01AM -27.2760 152.6570 100° East 219 252 6,000 -360 Climbing FlightAware
03:01AM -27.2800 152.6730 106° East 216 249 5,800 -960 Descending FlightAware
03:02AM -27.2870 152.7070 103° East 212 244 5,300 -780 Descending FlightAware
03:02AM -27.2920 152.7350 101° East 198 228 5,100 -240 Descending FlightAware
03:03AM -27.2990 152.7660 104° East 191 220 5,100  Level FlightAware
03:03AM -27.3040 152.7930 102° East 191 220 5,100 -180 Level FlightAware
03:03AM -27.3091 152.8194 102° East 200 230 5,000 -240 Descending Aus ATC (RADAR)
03:04AM -27.3100 152.8230 102° East 192 221 5,000 -180 Level FlightAware
03:04AM -27.3150 152.8570 99° East 191 220 4,900 -480 Descending FlightAware
03:04AM -27.3170 152.8670 103° East 188 216 4,700 -1,200 Descending FlightAware
03:05AM -27.3210 152.8980 98° East 187 215 4,100 -1,200 Descending FlightAware
03:05AM -27.3230 152.9130 99° East 184 212 3,800 -1,620 Descending FlightAware
03:05AM -27.3267 152.9328 99° East 189 217 3,300 -1,200 Descending Aus ATC (RADAR)
03:06AM -27.3280 152.9410 99° East 184 212 3,200 -300 Descending FlightAware
03:06AM -27.3290 152.9480 99° East 183 211 3,200 -1,200 Level FlightAware
03:06AM -27.3266 152.9677 99° East 190 219 2,800 -900 Descending Aus ATC (RADAR)
03:06AM -27.3270 152.9670 99° East 190 219 2,900 -180 Climbing FlightAware
03:06AM -27.3220 152.9990 80° East 195 224 2,700 -420 Descending FlightAware
03:07AM -27.3200 153.0140 81° East 192 221 2,600 -300 Descending FlightAware
03:07AM -27.3140 153.0400 75° East 189 217 2,500 -600 Descending FlightAware
03:08AM -27.3060 153.0680 72° East 178 205 2,100 -780 Descending FlightAware
03:08AM -27.2980 153.0920 69° East 167 192 1,800 -900 Descending FlightAware
03:08AM -27.2937 153.1086 69° East 173 199 1,500 -600 Descending Aus ATC (RADAR)
03:09AM -27.2930 153.1150 69° East 163 188 1,500 -180 Level FlightAware
03:09AM -27.2960 153.1390 98° East 158 182 1,400 -300 Descending FlightAware
03:09AM -27.3010 153.1500 117° Southeast 155 178 1,300 -300 Descending FlightAware
03:10AM -27.3160 153.1640 140° Southeast 137 158 1,200 -180 Descending FlightAware
03:10AM -27.3220 153.1650 172° South 132 152 1,200 -420 Level FlightAware
03:10AM -27.3310 153.1590 211° Southwest 134 154 1,000 -540 Descending FlightAware
03:11AM -27.3430 153.1530 204° Southwest 127 146 800 -600 Descending FlightAware
03:11AM -27.3511 153.1479 204° Southwest 107 123 600 -600 Descending Aus ATC (RADAR)
03:11AM -27.3550 153.1460 204° Southwest 109 125 500 -420 Descending FlightAware
03:11AM -27.3610 153.1420 211° Southwest 105 121 400 -540 Descending FlightAware
03:12AM -27.3694 153.1374 211° Southwest 89 102 200 -240 Descending Aus ATC (RADAR)
03:12AM -27.3700 153.1370 211° Southwest 102 117 300 1,200 Climbing FlightAware
03:12AM -27.3800 153.1310 208° Southwest 50 58 -600 Descending FlightAware
03:12AM -27.3810 153.1310 180° South 14 16  Level FlightAware
03:13AM -27.3820 153.1320 138° Southeast 16 18  Level FlightAware
03:13AM -27.3830 153.1320 180° South 16 18  Level FlightAware
03:14AM -27.3850 153.1330 156° South 17 20  Level FlightAware
03:14AM -27.3860 153.1350 119° Southeast 12 14  Level FlightAware
03:15AM -27.3870 153.1340 222° Southwest 14 16  Level FlightAware
03:15AM -27.3890 153.1330 204° Southwest 13 15  Level FlightAware
03:16AM -27.3900 153.1330 180° South 5 6  Level FlightAware
03:18AM -27.3842 153.1175 293° West  Level Estimated
03:19AM -27.3842 153.1175 North  Level Estimated
03:20AM -27.3842 153.1175 North  Level Estimated
03:21AM -27.3842 153.1175 North  Level Estimated
03:22AM -27.3842 153.1175 North  Level Estimated
03:23AM -27.3842 153.1175 North  Level Estimated
03:24AM -27.3842 153.1175 North  Level Estimated
03:25AM -27.3842 153.1175 North  Level Estimated
03:26AM -27.3842 153.1175 North  Level Estimated